"Pseudo-MPEC" for P21kLwm

Created 2021 Sep 17 2:07:23 UT using Find_Orb

Click here for an explanation of pseudo-MPECs

 
 Astrometry: 
     P21kLwm  C2021 09 10NT(/'J;fCke`O?7=L'9sAk48?C:G,uKHRlEwW+Lv!Egr_Sa2M\#;F52
     P21kLwm  C2021 09 10tw8AstrometryhxydJGplmsQ?IRe6p7uij6UqsXgm/Y6.XTXYJt%F52
     P21kLwm  C2021 09 10=G06qbUa3F7VkM1FC]nS=*aO8scGh3nSI?oY[\%r8pE#gl!J`TADF52
     P21kLwm  C2021 09 10oK6B4RiVe7chWYGl;'dTQ/1U2Co@redacted;d955)1click#[48F51
     P21kLwm  C2021 09 10wiIVj;rKY#hkux$mD]a4LjEP8;I;L:0xeCXBeIrc'6WLsr:b9Ph9F51
     P21kLwm  C2021 09 13HI+chereri20gRSyN?IF\P79VdeJdNd:p#b?c8co$N70[6_T9_7DF51
     P21kLwm  C2021 09 13v*ap%KDi@nF\4cMf^!#I\mb7-GNQx2+_(dd-^u.ucq7CDW'EZP\(F51
     P21kLwm  C2021 09 138Mi:!t83%wpD;vQforTK_O4WfWUD9!XC7:\d)P?#hexplanationF51

Station data:
(F51) Pan-STARRS 1, Haleakala  (N20.707235 W156.255910)  US/Hawaii.
   Observers N. Primak, A. Schultz, S. Watters, J. Thiel, T. Goggia. Measurer
   PS1 Science Consortium. 1.8-m Ritchey-Chrétien + CCD.
(F52) Pan-STARRS 2, Haleakala  (N20.707384 W156.255910)  US/Hawaii. 1.8-m
   Ritchey-Chrétien + CCD.

Orbital elements:  P21kLwm
   Perihelion 2022 Sep 8.268170 +/- 78.7473 TT =  6:26:09 (JD 2459830.768170)
Epoch 2021 Sep 13.0 TT = JDT 2459470.5   Earth MOID: 0.8242   AutoNEOCP
M 227.53808792 +/- 31.133325        (J2000 ecliptic)
n   0.36767586 +/- 0.0110277        Peri.  274.03205 +/- 22.091110
a   1.92971259 +/- 0.0385786        Node   215.72398 +/- 2.0201493
e   0.1146604 +/- 0.046216          Incl.   20.46071 +/- 0.9072066
P   2.68/979.10d           H 19.7   G  0.15   U  9.8  
q 1.70845091 +/- 0.0583158    Q 2.15097428 +/- 0.133775
From 8 observations 2021 Sept. 10-13; mean residual 0".10
Residuals in arcseconds: 
210910 F52  .06-  .03-    210910 F51  .02+  .00     210913 F51  .14+  .12+    
210910 F52  .05+  .06-    210910 F51  .03-  .03+    210913 F51  .12+  .03+    
210910 F52  .01+  .06+    210913 F51  .27-  .15-    

Ephemerides (geocentric):
Date (UTC) HH   RA              Dec         delta   r     elong  mag " sig PA
---- -- -- --  -------------   -----------  ------ ------ -----  --- ---- ---
2021 09 17 02  22 35 54.780   +20 44 06.30  1.1447 2.0877 152.3 22.4 14.1   2
2021 09 17 03  22 35 52.556   +20 43 25.76  1.1447 2.0877 152.3 22.4 14.3   2
2021 09 17 04  22 35 50.335   +20 42 45.19  1.1447 2.0876 152.3 22.4 14.6   2
2021 09 17 05  22 35 48.116   +20 42 04.59  1.1447 2.0876 152.3 22.4 14.8   2
2021 09 17 06  22 35 45.898   +20 41 23.95  1.1447 2.0875 152.3 22.4 15.1   2
2021 09 17 07  22 35 43.683   +20 40 43.28  1.1447 2.0875 152.3 22.4 15.3   2
2021 09 17 08  22 35 41.469   +20 40 02.57  1.1446 2.0875 152.3 22.4 15.6   2
2021 09 17 09  22 35 39.257   +20 39 21.84  1.1446 2.0874 152.3 22.4 15.8   2
2021 09 17 10  22 35 37.047   +20 38 41.07  1.1446 2.0874 152.3 22.4 16.1   2
2021 09 17 11  22 35 34.839   +20 38 00.26  1.1446 2.0874 152.3 22.4 16.3   2
2021 09 17 12  22 35 32.633   +20 37 19.43  1.1446 2.0873 152.3 22.4 16.6   2
2021 09 17 13  22 35 30.429   +20 36 38.56  1.1446 2.0873 152.3 22.4 16.8   2
2021 09 17 14  22 35 28.226   +20 35 57.66  1.1446 2.0872 152.3 22.4 17.1   2
2021 09 17 15  22 35 26.026   +20 35 16.73  1.1446 2.0872 152.3 22.4 17.4   2
2021 09 17 16  22 35 23.827   +20 34 35.76  1.1446 2.0872 152.3 22.4 17.6   1
2021 09 17 17  22 35 21.631   +20 33 54.76  1.1445 2.0871 152.3 22.4 17.9   1
2021 09 17 18  22 35 19.436   +20 33 13.73  1.1445 2.0871 152.3 22.4 18.2   1
2021 09 17 19  22 35 17.243   +20 32 32.67  1.1445 2.0870 152.3 22.4 18.4   1
2021 09 17 20  22 35 15.052   +20 31 51.57  1.1445 2.0870 152.3 22.4 18.7   1
2021 09 17 21  22 35 12.863   +20 31 10.44  1.1445 2.0870 152.2 22.4 19.0   1
2021 09 17 22  22 35 10.676   +20 30 29.28  1.1445 2.0869 152.2 22.4 19.3   1
2021 09 17 23  22 35 08.491   +20 29 48.09  1.1445 2.0869 152.2 22.4 19.5   1
2021 09 18 00  22 35 06.308   +20 29 06.87  1.1445 2.0869 152.2 22.4 19.8   1
2021 09 18 01  22 35 04.127   +20 28 25.62  1.1445 2.0868 152.2 22.4 20.1   1
2021 09 18 02  22 35 01.948   +20 27 44.33  1.1445 2.0868 152.2 22.4 20.4   1
2021 09 18 03  22 34 59.771   +20 27 03.01  1.1445 2.0867 152.2 22.4 20.7   1
2021 09 18 04  22 34 57.596   +20 26 21.66  1.1445 2.0867 152.2 22.4 20.9   1
2021 09 18 05  22 34 55.423   +20 25 40.28  1.1444 2.0867 152.2 22.4 21.2   1
2021 09 18 06  22 34 53.252   +20 24 58.87  1.1444 2.0866 152.2 22.4 21.5   1
2021 09 18 07  22 34 51.083   +20 24 17.42  1.1444 2.0866 152.2 22.4 21.8   1
2021 09 18 08  22 34 48.916   +20 23 35.94  1.1444 2.0865 152.2 22.4 22.1   1
2021 09 18 09  22 34 46.750   +20 22 54.44  1.1444 2.0865 152.2 22.4 22.4   1
2021 09 18 10  22 34 44.587   +20 22 12.90  1.1444 2.0865 152.2 22.4 22.7   1
2021 09 18 11  22 34 42.426   +20 21 31.33  1.1444 2.0864 152.2 22.4 23.0   1
2021 09 18 12  22 34 40.267   +20 20 49.73  1.1444 2.0864 152.2 22.4 23.3   1
2021 09 18 13  22 34 38.110   +20 20 08.10  1.1444 2.0863 152.2 22.4 23.6   1
2021 09 18 14  22 34 35.955   +20 19 26.44  1.1444 2.0863 152.2 22.4 23.9   1
2021 09 18 15  22 34 33.802   +20 18 44.74  1.1444 2.0863 152.2 22.4 24.2   1
2021 09 18 16  22 34 31.651   +20 18 03.02  1.1444 2.0862 152.2 22.4 24.5   1
2021 09 18 17  22 34 29.503   +20 17 21.27  1.1444 2.0862 152.1 22.4 24.8   0
2021 09 18 18  22 34 27.356   +20 16 39.48  1.1444 2.0862 152.1 22.4 25.1   0
2021 09 18 19  22 34 25.211   +20 15 57.67  1.1444 2.0861 152.1 22.4 25.4   0
2021 09 18 20  22 34 23.068   +20 15 15.82  1.1444 2.0861 152.1 22.4 25.8   0
2021 09 18 21  22 34 20.928   +20 14 33.94  1.1444 2.0860 152.1 22.4 26.1   0
2021 09 18 22  22 34 18.789   +20 13 52.04  1.1444 2.0860 152.1 22.4 26.4   0
2021 09 18 23  22 34 16.653   +20 13 10.10  1.1444 2.0860 152.1 22.4 26.7   0
2021 09 19 00  22 34 14.519   +20 12 28.13  1.1444 2.0859 152.1 22.4 27.0   0
2021 09 19 01  22 34 12.386   +20 11 46.14  1.1444 2.0859 152.1 22.4 27.4   0